Weather History for KIJX - April, 2014

Change the Weather History Date:

Sunday, April 20, 2014

  Actual Average (KSPI) Record (KSPI)
Temperature  
Mean Temperature 66 °F 55 °F  
Max Temperature 81 °F 66 °F 89 °F (1936)
Min Temperature 51 °F 44 °F 28 °F (1956)
Degree Days  
Heating Degree Days 0 11  
Month to date heating degree days 277  
Since 1 July heating degree days 5259  
Cooling Degree Days 1 1  
Month to date cooling degree days 9  
Year to date cooling degree days 11  
Growing Degree Days 16 (Base 50)    
Moisture  
Dew Point 41 °F    
Average Humidity 40    
Maximum Humidity 63    
Minimum Humidity 23    
Precipitation  
Precipitation 0.00 in 0.13 in 1.86 in (1964)
Month to date precipitation 2.23  
Year to date precipitation 8.49  
Snow  
Snow 0.00 in 0.00 in T in (1943)
Month to date snowfall 0.3  
Since 1 July snowfall 20.9  
Snow Depth -    
Sea Level Pressure  
Sea Level Pressure 30.13 in    
Wind  
Wind Speed 8 mph (SSE)    
Max Wind Speed 14 mph    
Max Gust Speed 20 mph    
Visibility 10 miles    
Events      
T = Trace of Precipitation, MM = Missing Value Source: NWS Daily Summary

Daily Weather History Graph

Daily Weather History Graph

Search for Another Location

Airport or City:

Trip Planner

Search our weather history database for the weather conditions in past years. The results will help you decide how hot, cold, wet, or windy it might be!

Date:

Astronomy

Apr. 20, 2014 Rise Set
Actual Time 6:16 AM CDT 7:44 PM CDT
Civil Twilight 5:47 AM CDT 8:12 PM CDT
Nautical Twilight 5:13 AM CDT 8:46 PM CDT
Astronomical Twilight 4:37 AM CDT 9:22 PM CDT
Moon 12:23 AM CDT (4/20) 10:37 AM CDT (4/20)
Length of Visible Light 14h 24m
Length of Day
13h 28m
Waning Gibbous, 68% of the Moon is Illuminated
Apr 20
Waning Gibbous
Apr 22
Last Quarter
Apr 29
New
May 6
First Quarter
May 14
Full

Hourly Weather History & Observations

Time (CDT) Temp. Dew Point Humidity Pressure Visibility Wind Dir Wind Speed Gust Speed Precip Events Conditions
12:15 AM 54.5 °F 42.1 °F 63% 30.19 in 10.0 mi SE 5.8 mph - N/A   Clear
12:35 AM 55.6 °F 41.9 °F 60% 30.19 in 10.0 mi SE 6.9 mph - N/A   Clear
12:55 AM 55.8 °F 41.4 °F 58% 30.19 in 10.0 mi SE 6.9 mph - N/A   Clear
1:15 AM 54.7 °F 41.0 °F 60% 30.19 in 10.0 mi SE 6.9 mph - N/A   Clear
1:35 AM 53.6 °F 40.5 °F 61% 30.18 in 10.0 mi SE 6.9 mph - N/A   Clear
1:55 AM 54.5 °F 40.1 °F 58% 30.19 in 10.0 mi SE 8.1 mph - N/A   Clear
2:15 AM 55.2 °F 39.4 °F 55% 30.18 in 10.0 mi SE 6.9 mph - N/A   Clear
2:35 AM 54.9 °F 39.2 °F 56% 30.19 in 10.0 mi SE 6.9 mph - N/A   Clear
2:55 AM 54.5 °F 38.7 °F 55% 30.19 in 10.0 mi SE 4.6 mph - N/A   Clear
3:15 AM 53.1 °F 38.8 °F 59% 30.19 in 10.0 mi SE 5.8 mph - N/A   Clear
3:35 AM 54.1 °F 38.3 °F 55% 30.19 in 10.0 mi SSE 6.9 mph - N/A   Clear
3:55 AM 54.7 °F 38.1 °F 54% 30.19 in 10.0 mi SE 5.8 mph - N/A   Clear
4:15 AM 53.6 °F 37.9 °F 55% 30.19 in 10.0 mi SE 5.8 mph - N/A   Clear
4:35 AM 52.9 °F 37.9 °F 57% 30.19 in 10.0 mi SE 5.8 mph - N/A   Clear
4:55 AM 52.0 °F 37.8 °F 58% 30.19 in 10.0 mi SE 4.6 mph - N/A   Clear
5:15 AM 52.0 °F 37.8 °F 58% 30.20 in 10.0 mi SE 4.6 mph - N/A   Clear
5:35 AM 51.6 °F 38.1 °F 60% 30.19 in 10.0 mi SE 4.6 mph - N/A   Clear
5:55 AM 52.0 °F 37.6 °F 58% 30.19 in 10.0 mi SSE 4.6 mph - N/A   Clear
6:15 AM 51.8 °F 37.6 °F 58% 30.19 in 10.0 mi SE 5.8 mph - N/A   Clear
6:35 AM 53.1 °F 37.6 °F 56% 30.19 in 10.0 mi SE 5.8 mph - N/A   Clear
6:55 AM 53.6 °F 38.1 °F 56% 30.20 in 10.0 mi SE 5.8 mph - N/A   Clear
7:15 AM 54.9 °F 38.8 °F 55% 30.20 in 10.0 mi SE 6.9 mph - N/A   Clear
7:35 AM 56.3 °F 39.2 °F 53% 30.20 in 10.0 mi SE 8.1 mph - N/A   Clear
7:55 AM 56.8 °F 39.2 °F 52% 30.20 in 10.0 mi SE 6.9 mph - N/A   Clear
8:15 AM 58.3 °F 40.3 °F 51% 30.20 in 10.0 mi SE 5.8 mph - N/A   Clear
8:35 AM 62.4 °F 39.2 °F 42% 30.19 in 10.0 mi SSE 9.2 mph - N/A   Clear
8:55 AM 64.9 °F 39.2 °F 39% 30.19 in 10.0 mi SSE 9.2 mph - N/A   Clear
9:15 AM 66.9 °F 39.4 °F 36% 30.19 in 10.0 mi South 9.2 mph - N/A   Clear
9:35 AM 69.4 °F 40.1 °F 34% 30.19 in 10.0 mi South 12.7 mph - N/A   Clear
9:55 AM 70.7 °F 40.5 °F 33% 30.19 in 10.0 mi South 10.4 mph 17.3 mph N/A   Clear
10:15 AM 72.7 °F 41.2 °F 32% 30.19 in 10.0 mi South 11.5 mph - N/A   Clear
10:35 AM 73.6 °F 41.9 °F 32% 30.18 in 10.0 mi SSW 11.5 mph 19.6 mph N/A   Clear
10:55 AM 74.7 °F 41.7 °F 31% 30.18 in 10.0 mi SW 12.7 mph - N/A   Clear
11:15 AM 75.6 °F 42.3 °F 30% 30.17 in 10.0 mi SSW 10.4 mph 18.4 mph N/A   Clear
11:35 AM 76.1 °F 43.3 °F 31% 30.16 in 10.0 mi South 10.4 mph 19.6 mph N/A   Clear
11:55 AM 76.8 °F 43.0 °F 30% 30.16 in 10.0 mi SSW 10.4 mph 16.1 mph N/A   Clear
12:15 PM 78.1 °F 41.5 °F 27% 30.15 in 10.0 mi SSW 11.5 mph 18.4 mph N/A   Clear
12:35 PM 78.8 °F 41.9 °F 27% 30.15 in 10.0 mi South 10.4 mph - N/A   Clear
12:55 PM 79.2 °F 41.0 °F 26% 30.14 in 10.0 mi South 13.8 mph 17.3 mph N/A   Clear
1:15 PM 79.5 °F 41.4 °F 26% 30.14 in 10.0 mi South 6.9 mph 19.6 mph N/A   Clear
1:35 PM 79.2 °F 40.8 °F 25% 30.13 in 10.0 mi SW 5.8 mph 9.2 mph N/A   Clear
1:55 PM 80.2 °F 42.1 °F 26% 30.12 in 10.0 mi SW 10.4 mph 16.1 mph N/A   Clear
2:15 PM 80.2 °F 41.0 °F 25% 30.12 in 10.0 mi South 13.8 mph - N/A   Clear
2:35 PM 80.4 °F 41.5 °F 25% 30.11 in 10.0 mi South 13.8 mph - N/A   Clear
2:55 PM 80.4 °F 41.5 °F 25% 30.10 in 10.0 mi South 11.5 mph 16.1 mph N/A   Clear
3:15 PM 80.8 °F 40.5 °F 24% 30.09 in 10.0 mi South 10.4 mph 18.4 mph N/A   Clear
3:35 PM 80.4 °F 40.3 °F 24% 30.08 in 10.0 mi South 10.4 mph 17.3 mph N/A   Clear
3:55 PM 81.0 °F 39.4 °F 23% 30.08 in 10.0 mi SSW 8.1 mph - N/A   Clear
4:15 PM 80.2 °F 39.6 °F 23% 30.08 in 10.0 mi SSE 10.4 mph - N/A   Clear
4:35 PM 79.9 °F 39.4 °F 23% 30.07 in 10.0 mi SSW 11.5 mph 17.3 mph N/A   Clear
4:55 PM 79.9 °F 40.5 °F 24% 30.07 in 10.0 mi SE 10.4 mph - N/A   Clear
5:15 PM 79.7 °F 38.8 °F 23% 30.07 in 10.0 mi South 13.8 mph - N/A   Clear
5:35 PM 79.0 °F 39.2 °F 24% 30.07 in 10.0 mi SSE 8.1 mph - N/A   Clear
5:55 PM 78.6 °F 39.4 °F 24% 30.06 in 10.0 mi SSE 12.7 mph 16.1 mph N/A   Clear
6:15 PM 77.0 °F 40.1 °F 27% 30.06 in 10.0 mi SSE 9.2 mph - N/A   Clear
6:35 PM 77.0 °F 39.4 °F 26% 30.05 in 10.0 mi SSE 10.4 mph - N/A   Clear
6:55 PM 75.7 °F 39.9 °F 28% 30.05 in 10.0 mi SSE 9.2 mph - N/A   Clear
7:15 PM 75.0 °F 39.7 °F 28% 30.05 in 10.0 mi SSE 5.8 mph - N/A   Clear
7:35 PM 72.7 °F 40.3 °F 31% 30.05 in 10.0 mi SSE 5.8 mph - N/A   Clear
7:55 PM 71.2 °F 40.8 °F 33% 30.05 in 10.0 mi SE 8.1 mph - N/A   Clear
8:15 PM 70.3 °F 41.7 °F 35% 30.05 in 10.0 mi SE 8.1 mph - N/A   Clear
8:35 PM 69.4 °F 42.3 °F 37% 30.05 in 10.0 mi SE 8.1 mph - N/A   Clear
8:55 PM 68.0 °F 42.6 °F 40% 30.05 in 10.0 mi SE 8.1 mph - N/A   Clear
9:15 PM 67.5 °F 43.7 °F 42% 30.05 in 10.0 mi SE 9.2 mph - N/A   Clear
9:35 PM 68.0 °F 43.9 °F 42% 30.05 in 10.0 mi SE 11.5 mph - N/A   Clear
9:55 PM 67.3 °F 44.1 °F 43% 30.05 in 10.0 mi SSE 10.4 mph - N/A   Clear
10:15 PM 66.7 °F 44.4 °F 44% 30.05 in 10.0 mi SE 10.4 mph - N/A   Clear
10:35 PM 66.4 °F 44.2 °F 45% 30.05 in 10.0 mi SE 10.4 mph - N/A   Clear
10:55 PM 66.9 °F 43.9 °F 43% 30.04 in 10.0 mi SSE 10.4 mph - N/A   Clear
11:15 PM 67.1 °F 43.9 °F 43% 30.04 in 10.0 mi SSE 10.4 mph - N/A   Clear
11:35 PM 67.5 °F 43.9 °F 43% 30.04 in 10.0 mi SSE 10.4 mph - N/A   Clear
11:55 PM 68.2 °F 43.7 °F 41% 30.03 in 10.0 mi SSE 12.7 mph - N/A   Clear